| time (UTC) | temp F | wind direction | speed MPH | gust MPH | rain 1hr in | rain 24hr in | rain mn in | humidity % | barometer mb |
| 20260506080501 | 46 | 6 | 1.0 | 7.0 | 0.00 | 1.51 | 0.18 | 90 | 1007.9 |
| 20260506080402 | 46 | 44 | 2.0 | 2.0 | 0.00 | 1.51 | 0.18 | 90 | 1008.0 |
| 20260506080301 | 46 | 16 | 1.0 | 6.0 | 0.00 | 1.52 | 0.18 | 90 | 1008.1 |
| 20260506080202 | 47 | 30 | 0.0 | 3.0 | 0.00 | 1.52 | 0.18 | 90 | 1008.0 |
| 20260506073502 | 47 | 356 | 0.0 | 0.0 | 0.02 | 1.70 | 0.18 | 92 | 1008.1 |
| 20260506073401 | 47 | 356 | 0.0 | 0.0 | 0.02 | 1.70 | 0.18 | 92 | 1008.1 |
| 20260506073302 | 47 | 356 | 0.0 | 0.0 | 0.02 | 1.70 | 0.18 | 92 | 1008.2 |
| 20260506073203 | 47 | 352 | 0.0 | 1.0 | 0.02 | 1.70 | 0.18 | 91 | 1008.1 |
| 20260506073001 | 47 | 354 | 0.0 | 5.0 | 0.02 | 1.70 | 0.18 | 92 | 1007.9 |
| 20260506072901 | 47 | 353 | 1.0 | 0.0 | 0.02 | 1.70 | 0.18 | 92 | 1007.9 |
| 20260506072801 | 46 | 352 | 3.0 | 6.0 | 0.02 | 1.70 | 0.18 | 91 | 1007.9 |
| 20260506072701 | 46 | 9 | 2.0 | 7.0 | 0.02 | 1.70 | 0.18 | 91 | 1007.8 |
| 20260506072602 | 47 | 9 | 1.0 | 3.0 | 0.02 | 1.70 | 0.18 | 91 | 1007.8 |
| 20260506072501 | 47 | 348 | 1.0 | 2.0 | 0.02 | 1.70 | 0.18 | 91 | 1007.7 |
| 20260506072401 | 47 | 2 | 1.0 | 2.0 | 0.02 | 1.70 | 0.18 | 91 | 1007.7 |
| 20260506072305 | 47 | 358 | 1.0 | 2.0 | 0.02 | 1.70 | 0.18 | 91 | 1007.7 |
| 20260506072201 | 47 | 355 | 2.0 | 5.0 | 0.03 | 1.70 | 0.18 | 91 | 1007.7 |
| 20260506072100 | 46 | 3 | 2.0 | 6.0 | 0.03 | 1.70 | 0.18 | 91 | 1007.7 |
| 20260506072000 | 47 | 31 | 1.0 | 7.0 | 0.03 | 1.70 | 0.18 | 91 | 1007.8 |
| 20260506071900 | 46 | 26 | 2.0 | 3.0 | 0.03 | 1.70 | 0.18 | 91 | 1007.7 |
| 20260506071802 | 47 | 3 | 1.0 | 6.0 | 0.03 | 1.70 | 0.18 | 91 | 1007.9 |
| 20260506071700 | 47 | 13 | 2.0 | 2.0 | 0.03 | 1.70 | 0.18 | 91 | 1008.0 |
| 20260506071600 | 47 | 345 | 1.0 | 6.0 | 0.03 | 1.70 | 0.18 | 91 | 1008.0 |
| 20260506071502 | 47 | 345 | 1.0 | 6.0 | 0.03 | 1.70 | 0.18 | 91 | 1008.0 |
| 20260506071401 | 47 | 340 | 2.0 | 5.0 | 0.04 | 1.70 | 0.18 | 91 | 1008.0 |
| 20260506071301 | 46 | 355 | 3.0 | 7.0 | 0.04 | 1.70 | 0.18 | 90 | 1008.0 |
| 20260506071201 | 47 | 7 | 1.0 | 7.0 | 0.04 | 1.70 | 0.18 | 90 | 1008.0 |
| 20260506071101 | 47 | 14 | 2.0 | 7.0 | 0.04 | 1.70 | 0.18 | 90 | 1007.9 |
| 20260506071002 | 47 | 340 | 1.0 | 7.0 | 0.04 | 1.70 | 0.18 | 91 | 1007.8 |
| 20260506070901 | 47 | 9 | 1.0 | 2.0 | 0.05 | 1.70 | 0.18 | 90 | 1007.8 |
| 20260506070801 | 46 | 356 | 2.0 | 6.0 | 0.05 | 1.70 | 0.18 | 90 | 1007.8 |
| 20260506070700 | 46 | 5 | 5.0 | 5.0 | 0.05 | 1.70 | 0.18 | 90 | 1007.8 |
| 20260506070600 | 46 | 7 | 5.0 | 9.0 | 0.05 | 1.70 | 0.18 | 90 | 1007.7 |
| 20260506070500 | 46 | 10 | 6.0 | 9.0 | 0.05 | 1.70 | 0.18 | 89 | 1007.6 |
| 20260506070401 | 46 | 357 | 5.0 | 12.0 | 0.05 | 1.70 | 0.18 | 89 | 1007.6 |
| 20260506070301 | 46 | 32 | 3.0 | 7.0 | 0.06 | 1.70 | 0.18 | 90 | 1007.6 |
| 20260506070201 | 46 | 11 | 6.0 | 7.0 | 0.06 | 1.70 | 0.18 | 89 | 1007.6 |
| 20260506062500 | 48 | 344 | 3.0 | 8.0 | 0.05 | 1.68 | 0.16 | 92 | 1008.2 |
| 20260506062400 | 48 | 13 | 6.0 | 7.0 | 0.05 | 1.68 | 0.16 | 92 | 1008.1 |
| 20260506062300 | 48 | 357 | 7.0 | 14.0 | 0.05 | 1.68 | 0.16 | 92 | 1008.2 |
| 20260506062200 | 48 | 13 | 6.0 | 9.0 | 0.04 | 1.67 | 0.15 | 92 | 1008.2 |
| 20260506062100 | 48 | 2 | 7.0 | 14.0 | 0.04 | 1.67 | 0.15 | 92 | 1008.3 |
| 20260506062000 | 48 | 13 | 7.0 | 16.0 | 0.04 | 1.67 | 0.15 | 92 | 1008.2 |
| 20260506061900 | 48 | 342 | 3.0 | 8.0 | 0.04 | 1.67 | 0.15 | 93 | 1008.1 |
| 20260506061801 | 48 | 8 | 3.0 | 6.0 | 0.04 | 1.67 | 0.15 | 93 | 1008.1 |
| 20260506061701 | 48 | 7 | 3.0 | 6.0 | 0.04 | 1.67 | 0.15 | 93 | 1008.0 |
| 20260506061600 | 48 | 1 | 5.0 | 10.0 | 0.04 | 1.67 | 0.15 | 93 | 1008.0 |
| 20260506061500 | 48 | 0 | 7.0 | 10.0 | 0.03 | 1.66 | 0.14 | 93 | 1008.0 |
| 20260506061400 | 48 | 8 | 6.0 | 14.0 | 0.04 | 1.66 | 0.14 | 93 | 1008.1 |
| 20260506061301 | 48 | 345 | 3.0 | 7.0 | 0.04 | 1.66 | 0.14 | 93 | 1008.1 |
| 20260506061201 | 48 | 348 | 5.0 | 9.0 | 0.04 | 1.66 | 0.14 | 93 | 1008.1 |
| 20260506061100 | 49 | 335 | 5.0 | 9.0 | 0.04 | 1.66 | 0.14 | 93 | 1008.1 |
| 20260506061000 | 49 | 358 | 3.0 | 6.0 | 0.04 | 1.66 | 0.14 | 93 | 1008.1 |
| 20260506060908 | 49 | 354 | 3.0 | 9.0 | 0.04 | 1.65 | 0.13 | 93 | 1008.1 |
| 20260506060901 | 49 | 1 | 2.0 | 5.0 | 0.04 | 1.65 | 0.13 | 93 | 1008.1 |
| 20260506060800 | 49 | 354 | 3.0 | 9.0 | 0.04 | 1.65 | 0.13 | 93 | 1008.1 |
| 20260506060700 | 49 | 356 | 3.0 | 10.0 | 0.04 | 1.65 | 0.13 | 93 | 1008.1 |
| 20260506060600 | 49 | 1 | 2.0 | 8.0 | 0.04 | 1.65 | 0.13 | 94 | 1008.2 |
| 20260506060503 | 49 | 1 | 2.0 | 8.0 | 0.04 | 1.65 | 0.13 | 94 | 1008.2 |
| 20260506060402 | 49 | 352 | 1.0 | 6.0 | 0.05 | 1.65 | 0.13 | 94 | 1008.2 |
| 20260506060302 | 49 | 352 | 1.0 | 6.0 | 0.05 | 1.65 | 0.13 | 94 | 1008.2 |
| 20260506051400 | 49 | 8 | 3.0 | 8.0 | 0.06 | 1.62 | 0.10 | 94 | 1007.6 |
| 20260506051300 | 49 | 2 | 2.0 | 7.0 | 0.07 | 1.62 | 0.10 | 94 | 1007.7 |
| 20260506051201 | 49 | 353 | 2.0 | 6.0 | 0.07 | 1.62 | 0.10 | 94 | 1007.7 |
| 20260506051100 | 49 | 326 | 3.0 | 5.0 | 0.07 | 1.62 | 0.10 | 94 | 1007.8 |
| 20260506051000 | 49 | 0 | 1.0 | 8.0 | 0.07 | 1.62 | 0.10 | 94 | 1007.7 |
| 20260506050802 | 49 | 320 | 1.0 | 3.0 | 0.07 | 1.61 | 0.09 | 94 | 1007.9 |
| 20260506050702 | 49 | 299 | 1.0 | 1.0 | 0.07 | 1.61 | 0.09 | 94 | 1007.9 |
| 20260506050602 | 49 | 299 | 1.0 | 1.0 | 0.07 | 1.61 | 0.09 | 94 | 1007.9 |
| 20260506050501 | 49 | 13 | 0.0 | 0.0 | 0.07 | 1.60 | 0.08 | 94 | 1007.8 |
| 20260506050404 | 49 | 7 | 1.0 | 1.0 | 0.07 | 1.60 | 0.08 | 94 | 1007.8 |
| 20260506050301 | 49 | 1 | 1.0 | 3.0 | 0.07 | 1.60 | 0.08 | 94 | 1007.8 |
| 20260506050201 | 49 | 343 | 2.0 | 3.0 | 0.08 | 1.60 | 0.08 | 94 | 1007.7 |
| 20260506050137 | 49 | 356 | 2.0 | 6.0 | 0.08 | 1.60 | 0.08 | 94 | 1007.6 |
| 20260506045101 | 49 | 15 | 3.0 | 8.0 | 0.00 | 1.59 | 0.07 | 94 | 1007.3 |
| 20260506045001 | 49 | 19 | 5.0 | 9.0 | 0.00 | 1.59 | 0.07 | 94 | 1007.3 |
| 20260506044901 | 49 | 344 | 2.0 | 7.0 | 0.00 | 1.59 | 0.07 | 94 | 1007.2 |
| 20260506044802 | 49 | 351 | 3.0 | 8.0 | 0.00 | 1.59 | 0.07 | 94 | 1007.2 |
| 20260506044701 | 49 | 8 | 5.0 | 9.0 | 0.00 | 1.59 | 0.07 | 94 | 1007.1 |
| 20260506044601 | 49 | 3 | 3.0 | 10.0 | 0.00 | 1.59 | 0.07 | 94 | 1007.0 |
| 20260506044501 | 49 | 18 | 5.0 | 9.0 | 0.00 | 1.58 | 0.06 | 94 | 1007.0 |
| 20260506044401 | 49 | 7 | 2.0 | 8.0 | 0.00 | 1.58 | 0.06 | 95 | 1007.0 |
| 20260506044301 | 50 | 0 | 2.0 | 3.0 | 0.00 | 1.58 | 0.06 | 95 | 1006.9 |
| 20260506044202 | 50 | 10 | 2.0 | 6.0 | 0.00 | 1.58 | 0.06 | 95 | 1007.0 |
| 20260506044101 | 50 | 5 | 0.0 | 7.0 | 0.00 | 1.58 | 0.06 | 95 | 1007.0 |
| 20260506044001 | 50 | 347 | 0.0 | 0.0 | 0.00 | 1.58 | 0.06 | 95 | 1007.0 |
| 20260506043901 | 50 | 347 | 1.0 | 1.0 | 0.00 | 1.58 | 0.06 | 95 | 1007.0 |
| 20260506043800 | 49 | 17 | 3.0 | 5.0 | 0.00 | 1.58 | 0.06 | 95 | 1007.0 |
| 20260506043700 | 49 | 4 | 2.0 | 7.0 | 0.00 | 1.58 | 0.06 | 95 | 1007.0 |
| 20260506043600 | 49 | 13 | 2.0 | 2.0 | 0.00 | 1.58 | 0.06 | 95 | 1007.0 |
| 20260506043500 | 49 | 22 | 2.0 | 6.0 | 0.00 | 1.58 | 0.06 | 95 | 1007.0 |
| 20260506043400 | 49 | 11 | 2.0 | 5.0 | 0.00 | 1.58 | 0.06 | 95 | 1006.9 |
| 20260506043301 | 49 | 22 | 2.0 | 5.0 | 0.00 | 1.58 | 0.06 | 95 | 1006.9 |
| 20260506043200 | 49 | 15 | 6.0 | 10.0 | 0.00 | 1.58 | 0.06 | 95 | 1006.9 |
| 20260506043102 | 49 | 355 | 3.0 | 10.0 | 0.00 | 1.58 | 0.06 | 95 | 1007.0 |
| 20260506043000 | 50 | 15 | 0.0 | 7.0 | 0.00 | 1.58 | 0.06 | 95 | 1007.0 |
| 20260506042902 | 49 | 3 | 1.0 | 1.0 | 0.00 | 1.58 | 0.06 | 95 | 1007.0 |
| 20260506042802 | 49 | 3 | 1.0 | 1.0 | 0.00 | 1.58 | 0.06 | 95 | 1007.0 |
| 20260506042703 | 49 | 337 | 2.0 | 10.0 | 0.00 | 1.58 | 0.06 | 95 | 1007.0 |
| 20260506042602 | 49 | 348 | 6.0 | 10.0 | 0.00 | 1.58 | 0.06 | 94 | 1007.1 |
| 20260506042502 | 49 | 348 | 6.0 | 10.0 | 0.00 | 1.58 | 0.06 | 94 | 1007.1 |
| 20260506042402 | 49 | 12 | 5.0 | 10.0 | 0.00 | 1.57 | 0.05 | 95 | 1007.2 |
| 20260506042305 | 50 | 1 | 3.0 | 8.0 | 0.00 | 1.57 | 0.05 | 95 | 1007.3 |
| 20260506042203 | 50 | 1 | 3.0 | 8.0 | 0.00 | 1.57 | 0.05 | 95 | 1007.3 |
| 20260506042101 | 49 | 11 | 6.0 | 9.0 | 0.00 | 1.57 | 0.05 | 95 | 1007.3 |
| 20260506042001 | 50 | 8 | 2.0 | 12.0 | 0.00 | 1.57 | 0.05 | 95 | 1007.3 |
| 20260506041901 | 50 | 352 | 2.0 | 6.0 | 0.00 | 1.56 | 0.04 | 95 | 1007.2 |
| 20260506041801 | 50 | 341 | 2.0 | 7.0 | 0.00 | 1.56 | 0.04 | 95 | 1007.2 |
| 20260506041701 | 50 | 341 | 2.0 | 7.0 | 0.00 | 1.56 | 0.04 | 95 | 1007.2 |
| 20260506041601 | 49 | 5 | 5.0 | 8.0 | 0.00 | 1.56 | 0.04 | 95 | 1007.2 |
| 20260506041501 | 50 | 354 | 3.0 | 10.0 | 0.00 | 1.56 | 0.04 | 95 | 1007.2 |
| 20260506041401 | 50 | 10 | 1.0 | 5.0 | 0.00 | 1.56 | 0.04 | 95 | 1007.3 |
| 20260506041303 | 50 | 14 | 2.0 | 3.0 | 0.00 | 1.55 | 0.03 | 95 | 1007.3 |
| 20260506041201 | 50 | 6 | 3.0 | 7.0 | 0.00 | 1.55 | 0.03 | 95 | 1007.3 |
| 20260506041101 | 50 | 286 | 1.0 | 8.0 | 0.00 | 1.55 | 0.03 | 95 | 1007.3 |
| 20260506041001 | 50 | 12 | 1.0 | 2.0 | 0.00 | 1.55 | 0.03 | 95 | 1007.3 |
| 20260506040901 | 50 | 9 | 1.0 | 2.0 | 0.00 | 1.54 | 0.02 | 95 | 1007.4 |
| 20260506040801 | 50 | 3 | 1.0 | 2.0 | 0.00 | 1.54 | 0.02 | 95 | 1007.4 |
| 20260506040701 | 50 | 343 | 2.0 | 5.0 | 0.00 | 1.54 | 0.02 | 95 | 1007.4 |
| 20260506040601 | 50 | 304 | 1.0 | 6.0 | 0.00 | 1.54 | 0.02 | 95 | 1007.4 |
| 20260506040501 | 50 | 335 | 0.0 | 3.0 | 0.00 | 1.53 | 0.01 | 95 | 1007.5 |
| 20260506040401 | 50 | 246 | 1.0 | 1.0 | 0.00 | 1.53 | 0.01 | 95 | 1007.4 |
| 20260506040300 | 50 | 337 | 1.0 | 3.0 | 0.00 | 1.53 | 0.01 | 95 | 1007.4 |
| 20260506040200 | 50 | 353 | 2.0 | 7.0 | 0.00 | 1.52 | 0.00 | 95 | 1007.4 |
| 20260506040100 | 50 | 355 | 2.0 | 5.0 | 0.00 | 1.52 | 0.00 | 95 | 1007.5 |
| 20260506040002 | 50 | 355 | 2.0 | 5.0 | 0.00 | 1.52 | 0.00 | 95 | 1007.5 |
| 20260506035903 | 50 | 5 | 1.0 | 5.0 | 0.18 | 1.52 | 1.52 | 95 | 1007.5 |
| 20260506035702 | 50 | 333 | 1.0 | 3.0 | 0.18 | 1.51 | 1.51 | 95 | 1007.4 |
| 20260506035602 | 50 | 317 | 2.0 | 6.0 | 0.18 | 1.51 | 1.51 | 95 | 1007.4 |
| 20260506035502 | 50 | 317 | 2.0 | 6.0 | 0.18 | 1.51 | 1.51 | 95 | 1007.4 |
| 20260506035402 | 50 | 346 | 0.0 | 1.0 | 0.17 | 1.50 | 1.50 | 95 | 1007.3 |
| 20260506035305 | 50 | 346 | 0.0 | 1.0 | 0.17 | 1.50 | 1.50 | 95 | 1007.3 |
| 20260506035202 | 50 | 12 | 1.0 | 3.0 | 0.17 | 1.50 | 1.50 | 95 | 1007.4 |
| 20260506035102 | 50 | 12 | 1.0 | 3.0 | 0.17 | 1.50 | 1.50 | 95 | 1007.4 |
| 20260506035004 | 50 | 345 | 1.0 | 5.0 | 0.18 | 1.50 | 1.50 | 95 | 1007.5 |
| 20260506034902 | 50 | 326 | 1.0 | 6.0 | 0.18 | 1.50 | 1.50 | 95 | 1007.5 |
| 20260506034802 | 50 | 326 | 1.0 | 6.0 | 0.18 | 1.50 | 1.50 | 95 | 1007.5 |
| 20260506034702 | 50 | 275 | 1.0 | 1.0 | 0.17 | 1.49 | 1.49 | 95 | 1007.6 |
| 20260506034602 | 50 | 322 | 1.0 | 2.0 | 0.18 | 1.49 | 1.49 | 95 | 1007.4 |
| 20260506034502 | 50 | 340 | 1.0 | 5.0 | 0.17 | 1.48 | 1.48 | 95 | 1007.3 |
| 20260506034402 | 50 | 310 | 2.0 | 5.0 | 0.17 | 1.48 | 1.48 | 95 | 1007.3 |
| 20260506034303 | 50 | 310 | 2.0 | 5.0 | 0.17 | 1.48 | 1.48 | 95 | 1007.3 |
| 20260506034203 | 50 | 1 | 2.0 | 9.0 | 0.16 | 1.47 | 1.47 | 95 | 1007.4 |
| 20260506034102 | 50 | 291 | 1.0 | 1.0 | 0.16 | 1.46 | 1.46 | 95 | 1007.4 |
| 20260506034001 | 50 | 310 | 1.0 | 2.0 | 0.16 | 1.46 | 1.46 | 95 | 1007.4 |
| 20260506033802 | 50 | 325 | 1.0 | 6.0 | 0.15 | 1.45 | 1.45 | 95 | 1007.3 |
| 20260506033701 | 50 | 8 | 1.0 | 7.0 | 0.16 | 1.45 | 1.45 | 95 | 1007.2 |
| 20260506033600 | 50 | 330 | 1.0 | 2.0 | 0.15 | 1.44 | 1.44 | 95 | 1007.2 |
| 20260506033500 | 50 | 280 | 1.0 | 3.0 | 0.16 | 1.44 | 1.44 | 95 | 1007.1 |
| 20260506033403 | 50 | 290 | 0.0 | 6.0 | 0.17 | 1.44 | 1.44 | 95 | 1007.0 |
| 20260506033302 | 50 | 21 | 1.0 | 1.0 | 0.16 | 1.43 | 1.43 | 95 | 1006.9 |
| 20260506033200 | 50 | 342 | 1.0 | 3.0 | 0.16 | 1.43 | 1.43 | 95 | 1006.9 |
| 20260506033101 | 50 | 8 | 1.0 | 5.0 | 0.16 | 1.42 | 1.42 | 95 | 1006.8 |
| 20260506033001 | 50 | 7 | 1.0 | 3.0 | 0.16 | 1.42 | 1.42 | 95 | 1006.8 |
| 20260506032903 | 50 | 7 | 1.0 | 3.0 | 0.16 | 1.42 | 1.42 | 95 | 1006.8 |
| 20260506032802 | 50 | 285 | 1.0 | 5.0 | 0.17 | 1.42 | 1.42 | 95 | 1006.7 |
| 20260506032702 | 50 | 285 | 1.0 | 5.0 | 0.17 | 1.42 | 1.42 | 95 | 1006.7 |
| 20260506032602 | 50 | 350 | 1.0 | 3.0 | 0.16 | 1.41 | 1.41 | 95 | 1006.7 |
| 20260506032502 | 50 | 347 | 1.0 | 5.0 | 0.16 | 1.40 | 1.40 | 95 | 1006.6 |
| 20260506032402 | 50 | 342 | 1.0 | 0.0 | 0.16 | 1.40 | 1.40 | 95 | 1006.6 |
| 20260506032305 | 50 | 342 | 1.0 | 0.0 | 0.16 | 1.40 | 1.40 | 95 | 1006.6 |
| 20260506032202 | 50 | 334 | 1.0 | 3.0 | 0.16 | 1.40 | 1.40 | 95 | 1006.5 |
| 20260506032102 | 50 | 358 | 3.0 | 8.0 | 0.15 | 1.39 | 1.39 | 95 | 1006.6 |
| 20260506032002 | 50 | 352 | 3.0 | 7.0 | 0.15 | 1.38 | 1.38 | 95 | 1006.7 |
| 20260506031902 | 50 | 359 | 1.0 | 5.0 | 0.15 | 1.38 | 1.38 | 95 | 1006.6 |
| 20260506031802 | 50 | 359 | 1.0 | 5.0 | 0.15 | 1.38 | 1.38 | 95 | 1006.6 |
| 20260506031702 | 50 | 1 | 2.0 | 3.0 | 0.15 | 1.38 | 1.38 | 95 | 1006.6 |
| 20260506031602 | 50 | 15 | 2.0 | 3.0 | 0.16 | 1.38 | 1.38 | 95 | 1006.6 |
| 20260506031502 | 50 | 11 | 1.0 | 5.0 | 0.15 | 1.37 | 1.37 | 95 | 1006.6 |
| 20260506031402 | 50 | 5 | 0.0 | 2.0 | 0.15 | 1.37 | 1.37 | 95 | 1006.6 |
| 20260506031302 | 50 | 5 | 0.0 | 2.0 | 0.15 | 1.37 | 1.37 | 95 | 1006.6 |
| 20260506031201 | 50 | 31 | 0.0 | 2.0 | 0.14 | 1.36 | 1.36 | 95 | 1006.8 |
| 20260506031101 | 50 | 27 | 2.0 | 2.0 | 0.14 | 1.36 | 1.36 | 95 | 1006.7 |
| 20260506031001 | 50 | 21 | 1.0 | 5.0 | 0.14 | 1.36 | 1.36 | 95 | 1006.6 |
| 20260506030901 | 50 | 253 | 1.0 | 1.0 | 0.15 | 1.36 | 1.36 | 95 | 1006.5 |
| 20260506030801 | 50 | 334 | 1.0 | 6.0 | 0.15 | 1.36 | 1.36 | 95 | 1006.5 |
| 20260506030601 | 50 | 7 | 2.0 | 6.0 | 0.14 | 1.35 | 1.35 | 95 | 1006.6 |
| 20260506030501 | 50 | 10 | 1.0 | 6.0 | 0.14 | 1.35 | 1.35 | 95 | 1006.6 |
| 20260506030401 | 50 | 7 | 2.0 | 5.0 | 0.14 | 1.35 | 1.35 | 95 | 1006.7 |
| 20260506030301 | 50 | 24 | 1.0 | 5.0 | 0.15 | 1.35 | 1.35 | 95 | 1006.8 |
| 20260506030201 | 50 | 13 | 0.0 | 3.0 | 0.14 | 1.34 | 1.34 | 95 | 1006.9 |
| 20260506030000 | 50 | 333 | 1.0 | 2.0 | 0.14 | 1.34 | 1.34 | 95 | 1006.8 |
| 20260506025900 | 50 | 19 | 1.0 | 3.0 | 0.14 | 1.34 | 1.34 | 95 | 1006.7 |
| 20260506025800 | 50 | 336 | 2.0 | 5.0 | 0.13 | 1.33 | 1.33 | 95 | 1006.6 |
| 20260506025702 | 50 | 350 | 2.0 | 7.0 | 0.13 | 1.33 | 1.33 | 95 | 1006.6 |
| 20260506025610 | 50 | 3 | 3.0 | 6.0 | 0.13 | 1.33 | 1.33 | 95 | 1006.6 |
| 20260506025500 | 50 | 12 | 3.0 | 9.0 | 0.13 | 1.33 | 1.33 | 95 | 1006.7 |
| 20260506025400 | 50 | 354 | 2.0 | 6.0 | 0.13 | 1.33 | 1.33 | 95 | 1006.8 |
| 20260506025305 | 50 | 353 | 3.0 | 8.0 | 0.13 | 1.33 | 1.33 | 95 | 1006.9 |
| 20260506025200 | 50 | 12 | 0.0 | 5.0 | 0.13 | 1.33 | 1.33 | 95 | 1007.0 |
| 20260506025100 | 50 | 357 | 1.0 | 1.0 | 0.13 | 1.33 | 1.33 | 95 | 1007.2 |
| 20260506025003 | 50 | 357 | 1.0 | 1.0 | 0.13 | 1.33 | 1.33 | 95 | 1007.2 |
| 20260506024902 | 50 | 8 | 1.0 | 5.0 | 0.12 | 1.32 | 1.32 | 95 | 1007.2 |
| 20260506024802 | 50 | 342 | 1.0 | 3.0 | 0.12 | 1.32 | 1.32 | 94 | 1007.2 |
| 20260506024702 | 50 | 342 | 1.0 | 3.0 | 0.12 | 1.32 | 1.32 | 94 | 1007.2 |
| 20260506024602 | 50 | 335 | 0.0 | 2.0 | 0.11 | 1.31 | 1.31 | 95 | 1007.1 |
| 20260506024501 | 50 | 312 | 1.0 | 2.0 | 0.11 | 1.31 | 1.31 | 95 | 1007.0 |
| 20260506024401 | 50 | 335 | 2.0 | 6.0 | 0.11 | 1.31 | 1.31 | 95 | 1007.1 |
| 20260506024303 | 50 | 341 | 1.0 | 3.0 | 0.11 | 1.31 | 1.31 | 95 | 1007.0 |
| 20260506024201 | 50 | 10 | 0.0 | 0.0 | 0.11 | 1.30 | 1.30 | 95 | 1007.1 |
| 20260506024101 | 50 | 10 | 0.0 | 0.0 | 0.12 | 1.30 | 1.30 | 95 | 1007.1 |
| 20260506024001 | 50 | 22 | 0.0 | 0.0 | 0.12 | 1.30 | 1.30 | 95 | 1007.0 |
| 20260506023901 | 50 | 22 | 0.0 | 0.0 | 0.12 | 1.30 | 1.30 | 95 | 1007.0 |
| 20260506023801 | 50 | 342 | 3.0 | 7.0 | 0.12 | 1.30 | 1.30 | 95 | 1006.9 |
| 20260506023700 | 50 | 347 | 2.0 | 13.0 | 0.11 | 1.29 | 1.29 | 95 | 1006.9 |
| 20260506023633 | 50 | 19 | 0.0 | 3.0 | 0.11 | 1.29 | 1.29 | 95 | 1007.0 |
| 20260506023600 | 50 | 19 | 0.0 | 3.0 | 0.11 | 1.29 | 1.29 | 95 | 1007.0 |
| 20260506023500 | 50 | 22 | 1.0 | 5.0 | 0.10 | 1.28 | 1.28 | 95 | 1007.2 |
| 20260506023402 | 50 | 330 | 1.0 | 6.0 | 0.09 | 1.27 | 1.27 | 95 | 1007.4 |
| 20260506023202 | 50 | 351 | 1.0 | 2.0 | 0.09 | 1.27 | 1.27 | 95 | 1007.5 |
| 20260506023106 | 50 | 11 | 2.0 | 3.0 | 0.10 | 1.27 | 1.27 | 95 | 1007.5 |
| 20260506023002 | 50 | 299 | 0.0 | 3.0 | 0.09 | 1.26 | 1.26 | 95 | 1007.5 |
| 20260506022902 | 50 | 302 | 0.0 | 1.0 | 0.08 | 1.25 | 1.25 | 95 | 1007.4 |
| 20260506022801 | 50 | 311 | 1.0 | 1.0 | 0.08 | 1.25 | 1.25 | 95 | 1007.3 |
| 20260506022701 | 50 | 310 | 1.0 | 5.0 | 0.08 | 1.25 | 1.25 | 95 | 1007.2 |
| 20260506022601 | 50 | 314 | 0.0 | 2.0 | 0.07 | 1.24 | 1.24 | 95 | 1007.0 |
| 20260506022401 | 50 | 332 | 3.0 | 7.0 | 0.07 | 1.24 | 1.24 | 95 | 1006.5 |
| 20260506022301 | 50 | 355 | 5.0 | 8.0 | 0.07 | 1.24 | 1.24 | 95 | 1006.4 |
| 20260506022201 | 50 | 332 | 1.0 | 9.0 | 0.07 | 1.24 | 1.24 | 95 | 1006.4 |
| 20260506022101 | 50 | 355 | 1.0 | 5.0 | 0.08 | 1.24 | 1.24 | 95 | 1006.3 |
| 20260506022001 | 50 | 48 | 0.0 | 0.0 | 0.07 | 1.23 | 1.23 | 95 | 1006.3 |
| 20260506021901 | 50 | 48 | 0.0 | 0.0 | 0.07 | 1.23 | 1.23 | 95 | 1006.3 |
| 20260506021801 | 50 | 48 | 0.0 | 0.0 | 0.07 | 1.23 | 1.23 | 95 | 1006.3 |
| 20260506021701 | 50 | 45 | 1.0 | 2.0 | 0.06 | 1.22 | 1.22 | 95 | 1006.4 |
| 20260506021501 | 50 | 7 | 1.0 | 1.0 | 0.07 | 1.22 | 1.22 | 95 | 1006.4 |
| 20260506021401 | 50 | 296 | 2.0 | 5.0 | 0.07 | 1.22 | 1.22 | 95 | 1006.4 |
| 20260506021301 | 50 | 17 | 1.0 | 5.0 | 0.07 | 1.22 | 1.22 | 95 | 1006.5 |
| 20260506021201 | 50 | 45 | 0.0 | 2.0 | 0.07 | 1.22 | 1.22 | 95 | 1006.5 |
| 20260506021101 | 50 | 49 | 1.0 | 2.0 | 0.07 | 1.22 | 1.22 | 95 | 1006.4 |
| 20260506020901 | 50 | 19 | 1.0 | 6.0 | 0.06 | 1.21 | 1.21 | 95 | 1006.2 |
| 20260506020801 | 50 | 342 | 0.0 | 0.0 | 0.06 | 1.21 | 1.21 | 95 | 1006.2 |
| 20260506020705 | 50 | 342 | 1.0 | 0.0 | 0.07 | 1.21 | 1.21 | 95 | 1006.2 |
| 20260506020601 | 50 | 3 | 3.0 | 8.0 | 0.07 | 1.21 | 1.21 | 95 | 1006.3 |
| 20260506020501 | 50 | 355 | 3.0 | 9.0 | 0.07 | 1.21 | 1.21 | 95 | 1006.3 |
| 20260506020401 | 50 | 357 | 2.0 | 5.0 | 0.07 | 1.21 | 1.21 | 95 | 1006.4 |
| 20260506020301 | 50 | 357 | 1.0 | 5.0 | 0.06 | 1.20 | 1.20 | 95 | 1006.5 |
| 20260506020201 | 50 | 339 | 2.0 | 5.0 | 0.07 | 1.20 | 1.20 | 95 | 1006.5 |
| 20260506020101 | 50 | 330 | 3.0 | 7.0 | 0.07 | 1.20 | 1.20 | 95 | 1006.5 |
| 20260506020000 | 50 | 327 | 1.0 | 7.0 | 0.07 | 1.20 | 1.20 | 95 | 1006.5 |
| 20260506015900 | 50 | 4 | 2.0 | 5.0 | 0.07 | 1.20 | 1.20 | 95 | 1006.6 |
| 20260506015802 | 50 | 4 | 2.0 | 5.0 | 0.07 | 1.20 | 1.20 | 95 | 1006.6 |
| 20260506015702 | 50 | 14 | 1.0 | 8.0 | 0.08 | 1.20 | 1.20 | 95 | 1006.5 |
| 20260506015602 | 50 | 353 | 0.0 | 3.0 | 0.08 | 1.20 | 1.20 | 95 | 1006.6 |
| 20260506015505 | 50 | 353 | 0.0 | 3.0 | 0.08 | 1.20 | 1.20 | 95 | 1006.6 |
| 20260506015402 | 50 | 354 | 1.0 | 1.0 | 0.08 | 1.20 | 1.20 | 95 | 1006.6 |
| 20260506015302 | 50 | 8 | 1.0 | 3.0 | 0.09 | 1.20 | 1.20 | 95 | 1006.6 |
| 20260506015202 | 50 | 28 | 1.0 | 3.0 | 0.09 | 1.20 | 1.20 | 95 | 1006.6 |
| 20260506015102 | 50 | 27 | 0.0 | 0.0 | 0.09 | 1.20 | 1.20 | 95 | 1006.6 |
| 20260506015001 | 50 | 27 | 0.0 | 0.0 | 0.09 | 1.20 | 1.20 | 95 | 1006.6 |
| 20260506014902 | 50 | 26 | 0.0 | 1.0 | 0.10 | 1.20 | 1.20 | 95 | 1006.5 |
| 20260506014801 | 50 | 26 | 0.0 | 1.0 | 0.10 | 1.20 | 1.20 | 95 | 1006.5 |
| 20260506014701 | 50 | 30 | 1.0 | 1.0 | 0.10 | 1.20 | 1.20 | 95 | 1006.5 |
| 20260506014601 | 50 | 10 | 0.0 | 3.0 | 0.10 | 1.20 | 1.20 | 95 | 1006.5 |
| 20260506014501 | 50 | 13 | 0.0 | 0.0 | 0.10 | 1.20 | 1.20 | 95 | 1006.5 |
| 20260506014401 | 50 | 13 | 0.0 | 0.0 | 0.10 | 1.20 | 1.20 | 95 | 1006.5 |
| 20260506014301 | 50 | 12 | 0.0 | 1.0 | 0.10 | 1.20 | 1.20 | 95 | 1006.5 |
| 20260506014201 | 50 | 11 | 1.0 | 3.0 | 0.09 | 1.19 | 1.19 | 95 | 1006.5 |
| 20260506014100 | 50 | 20 | 3.0 | 5.0 | 0.08 | 1.18 | 1.18 | 95 | 1006.5 |
| 20260506014002 | 50 | 4 | 2.0 | 7.0 | 0.08 | 1.18 | 1.18 | 95 | 1006.6 |
| 20260506013901 | 50 | 16 | 0.0 | 5.0 | 0.08 | 1.18 | 1.18 | 95 | 1006.7 |
| 20260506013800 | 50 | 16 | 0.0 | 0.0 | 0.09 | 1.18 | 1.18 | 95 | 1006.7 |
| 20260506013700 | 50 | 17 | 0.0 | 1.0 | 0.09 | 1.18 | 1.18 | 95 | 1006.7 |
| 20260506013600 | 50 | 17 | 0.0 | 0.0 | 0.09 | 1.18 | 1.18 | 95 | 1006.6 |
| 20260506013500 | 50 | 17 | 1.0 | 0.0 | 0.10 | 1.18 | 1.18 | 95 | 1006.6 |
| 20260506013400 | 50 | 9 | 1.0 | 2.0 | 0.10 | 1.18 | 1.18 | 95 | 1006.6 |
| 20260506013300 | 50 | 356 | 2.0 | 5.0 | 0.10 | 1.18 | 1.18 | 95 | 1006.7 |
| 20260506013200 | 50 | 7 | 1.0 | 6.0 | 0.09 | 1.17 | 1.17 | 95 | 1006.7 |
| 20260506013102 | 50 | 25 | 0.0 | 0.0 | 0.09 | 1.17 | 1.17 | 95 | 1006.8 |
| 20260506013002 | 50 | 25 | 0.0 | 0.0 | 0.09 | 1.17 | 1.17 | 95 | 1006.8 |
| 20260506012902 | 50 | 25 | 0.0 | 0.0 | 0.09 | 1.17 | 1.17 | 95 | 1006.8 |
| 20260506012801 | 50 | 25 | 2.0 | 1.0 | 0.09 | 1.17 | 1.17 | 94 | 1006.7 |
| 20260506012701 | 50 | 6 | 1.0 | 7.0 | 0.09 | 1.17 | 1.17 | 94 | 1006.6 |
| 20260506012602 | 50 | 5 | 1.0 | 2.0 | 0.09 | 1.17 | 1.17 | 94 | 1006.5 |
| 20260506012501 | 50 | 3 | 1.0 | 5.0 | 0.10 | 1.17 | 1.17 | 94 | 1006.3 |
| 20260506012402 | 50 | 10 | 2.0 | 7.0 | 0.10 | 1.17 | 1.17 | 94 | 1006.2 |
| 20260506012300 | 49 | 21 | 3.0 | 6.0 | 0.10 | 1.17 | 1.17 | 94 | 1006.3 |
| 20260506012201 | 50 | 5 | 3.0 | 8.0 | 0.10 | 1.17 | 1.17 | 94 | 1006.3 |
| 20260506012102 | 50 | 5 | 3.0 | 8.0 | 0.10 | 1.17 | 1.17 | 94 | 1006.3 |
| 20260506012003 | 50 | 351 | 5.0 | 7.0 | 0.10 | 1.16 | 1.16 | 94 | 1006.3 |
| 20260506011901 | 50 | 359 | 3.0 | 8.0 | 0.10 | 1.16 | 1.16 | 94 | 1006.2 |
| 20260506011802 | 50 | 16 | 2.0 | 5.0 | 0.10 | 1.16 | 1.16 | 94 | 1006.2 |
| 20260506011702 | 50 | 16 | 2.0 | 5.0 | 0.11 | 1.16 | 1.16 | 94 | 1006.3 |
| 20260506011602 | 50 | 11 | 1.0 | 6.0 | 0.11 | 1.16 | 1.16 | 94 | 1006.4 |
| 20260506011402 | 50 | 13 | 1.0 | 5.0 | 0.10 | 1.15 | 1.15 | 94 | 1006.8 |
| 20260506011302 | 50 | 13 | 0.0 | 1.0 | 0.10 | 1.15 | 1.15 | 94 | 1007.0 |
| 20260506011201 | 50 | 34 | 1.0 | 2.0 | 0.10 | 1.15 | 1.15 | 94 | 1007.0 |
| 20260506011103 | 50 | 17 | 0.0 | 5.0 | 0.10 | 1.15 | 1.15 | 94 | 1007.0 |
| 20260506011002 | 50 | 33 | 1.0 | 5.0 | 0.10 | 1.15 | 1.15 | 94 | 1007.0 |
| 20260506010902 | 50 | 18 | 0.0 | 5.0 | 0.10 | 1.15 | 1.15 | 94 | 1007.0 |
| 20260506010802 | 50 | 18 | 1.0 | 0.0 | 0.10 | 1.15 | 1.15 | 94 | 1007.1 |
| 20260506010600 | 50 | 10 | 0.0 | 2.0 | 0.09 | 1.14 | 1.14 | 94 | 1007.0 |
| 20260506010500 | 50 | 7 | 3.0 | 3.0 | 0.09 | 1.14 | 1.14 | 94 | 1006.9 |
| 20260506010400 | 50 | 353 | 2.0 | 9.0 | 0.09 | 1.14 | 1.14 | 94 | 1006.9 |
| 20260506010302 | 50 | 328 | 2.0 | 6.0 | 0.09 | 1.14 | 1.14 | 94 | 1006.9 |
| 20260506010200 | 50 | 2 | 0.0 | 5.0 | 0.08 | 1.13 | 1.13 | 94 | 1006.9 |
| 20260506010100 | 50 | 8 | 1.0 | 0.0 | 0.08 | 1.13 | 1.13 | 94 | 1006.9 |
| 20260506010000 | 50 | 19 | 1.0 | 5.0 | 0.08 | 1.13 | 1.13 | 94 | 1007.0 |
| 20260506005901 | 50 | 5 | 2.0 | 5.0 | 0.08 | 1.13 | 1.13 | 94 | 1007.1 |
| 20260506005701 | 50 | 313 | 1.0 | 0.0 | 0.07 | 1.12 | 1.12 | 93 | 1007.2 |
| 20260506005603 | 50 | 313 | 1.0 | 0.0 | 0.07 | 1.12 | 1.12 | 93 | 1007.2 |
| 20260506005503 | 50 | 0 | 6.0 | 12.0 | 0.08 | 1.12 | 1.12 | 94 | 1007.1 |
| 20260506005403 | 50 | 0 | 6.0 | 12.0 | 0.08 | 1.12 | 1.12 | 94 | 1007.1 |
| 20260506005305 | 50 | 355 | 3.0 | 8.0 | 0.07 | 1.11 | 1.11 | 94 | 1007.1 |
| 20260506005206 | 50 | 308 | 2.0 | 3.0 | 0.07 | 1.11 | 1.11 | 94 | 1007.0 |
| 20260506005102 | 50 | 341 | 2.0 | 6.0 | 0.07 | 1.11 | 1.11 | 94 | 1007.0 |
| 20260506005002 | 50 | 12 | 0.0 | 6.0 | 0.08 | 1.11 | 1.11 | 94 | 1007.0 |
| 20260506004901 | 50 | 43 | 1.0 | 3.0 | 0.07 | 1.10 | 1.10 | 94 | 1007.0 |
| 20260506004701 | 50 | 1 | 2.0 | 5.0 | 0.07 | 1.10 | 1.10 | 94 | 1006.9 |
| 20260506004601 | 50 | 357 | 1.0 | 5.0 | 0.08 | 1.10 | 1.10 | 94 | 1006.8 |
| 20260506004501 | 50 | 356 | 2.0 | 5.0 | 0.08 | 1.10 | 1.10 | 94 | 1006.8 |
| 20260506004400 | 50 | 330 | 1.0 | 6.0 | 0.08 | 1.10 | 1.10 | 94 | 1006.8 |
| 20260506004300 | 50 | 354 | 1.0 | 2.0 | 0.08 | 1.10 | 1.10 | 94 | 1006.7 |
| 20260506004201 | 50 | 23 | 1.0 | 3.0 | 0.08 | 1.10 | 1.10 | 94 | 1006.7 |
| 20260506004101 | 50 | 10 | 2.0 | 5.0 | 0.09 | 1.10 | 1.10 | 94 | 1006.7 |
| 20260506004000 | 50 | 6 | 3.0 | 6.0 | 0.09 | 1.10 | 1.10 | 94 | 1006.7 |
| 20260506003901 | 50 | 9 | 1.0 | 8.0 | 0.09 | 1.10 | 1.10 | 94 | 1006.6 |
| 20260506003802 | 50 | 24 | 1.0 | 1.0 | 0.08 | 1.09 | 1.09 | 94 | 1006.6 |
| 20260506003702 | 50 | 23 | 3.0 | 8.0 | 0.08 | 1.09 | 1.09 | 94 | 1006.6 |
| 20260506003602 | 50 | 23 | 3.0 | 8.0 | 0.08 | 1.09 | 1.09 | 94 | 1006.6 |
| 20260506003502 | 50 | 13 | 3.0 | 9.0 | 0.08 | 1.09 | 1.09 | 94 | 1006.6 |
| 20260506003402 | 50 | 0 | 2.0 | 7.0 | 0.08 | 1.08 | 1.08 | 94 | 1006.7 |
| 20260506003302 | 50 | 0 | 2.0 | 7.0 | 0.08 | 1.08 | 1.08 | 94 | 1006.7 |
| 20260506003202 | 50 | 7 | 2.0 | 5.0 | 0.08 | 1.08 | 1.08 | 94 | 1006.8 |
| 20260506003102 | 50 | 325 | 2.0 | 5.0 | 0.08 | 1.08 | 1.08 | 94 | 1006.9 |
| 20260506003003 | 50 | 325 | 2.0 | 5.0 | 0.08 | 1.08 | 1.08 | 94 | 1006.9 |
| 20260506002904 | 50 | 325 | 2.0 | 7.0 | 0.09 | 1.08 | 1.08 | 94 | 1007.0 |
| 20260506002804 | 50 | 297 | 1.0 | 5.0 | 0.09 | 1.08 | 1.08 | 94 | 1007.1 |
| 20260506002702 | 50 | 358 | 1.0 | 6.0 | 0.09 | 1.08 | 1.08 | 94 | 1007.0 |
| 20260506002601 | 50 | 15 | 2.0 | 3.0 | 0.10 | 1.08 | 1.08 | 94 | 1006.9 |
| 20260506002501 | 50 | 347 | 1.0 | 7.0 | 0.09 | 1.07 | 1.07 | 94 | 1006.8 |
| 20260506002401 | 50 | 337 | 0.0 | 0.0 | 0.10 | 1.07 | 1.07 | 94 | 1006.7 |
| 20260506002305 | 50 | 343 | 0.0 | 1.0 | 0.11 | 1.07 | 1.07 | 94 | 1006.6 |
| 20260506002202 | 50 | 16 | 2.0 | 5.0 | 0.12 | 1.07 | 1.07 | 93 | 1006.6 |
| 20260506001902 | 50 | 6 | 2.0 | 8.0 | 0.12 | 1.06 | 1.06 | 93 | 1006.8 |
| 20260506001703 | 50 | 337 | 2.0 | 2.0 | 0.11 | 1.05 | 1.05 | 93 | 1006.7 |
| 20260506001602 | 50 | 356 | 3.0 | 6.0 | 0.11 | 1.05 | 1.05 | 93 | 1006.7 |
| 20260506001001 | 50 | 7 | 2.0 | 8.0 | 0.12 | 1.05 | 1.05 | 93 | 1006.5 |
| 20260506000902 | 50 | 14 | 2.0 | 6.0 | 0.12 | 1.05 | 1.05 | 93 | 1006.5 |
| 20260506000804 | 50 | 10 | 3.0 | 10.0 | 0.12 | 1.05 | 1.05 | 92 | 1006.4 |
| 20260506000702 | 50 | 28 | 5.0 | 9.0 | 0.12 | 1.05 | 1.05 | 93 | 1006.3 |
| 20260506000401 | 50 | 6 | 5.0 | 10.0 | 0.12 | 1.05 | 1.05 | 92 | 1006.2 |
| 20260506000200 | 51 | 20 | 5.0 | 9.0 | 0.13 | 1.05 | 1.05 | 92 | 1006.4 |
| 20260506000002 | 51 | 27 | 6.0 | 14.0 | 0.13 | 1.05 | 1.05 | 93 | 1006.6 |
| 20260505235900 | 51 | 15 | 3.0 | 9.0 | 0.14 | 1.05 | 1.05 | 94 | 1006.6 |
| 20260505235700 | 51 | 23 | 2.0 | 8.0 | 0.14 | 1.05 | 1.05 | 94 | 1006.6 |
| 20260505235601 | 51 | 10 | 3.0 | 8.0 | 0.13 | 1.04 | 1.04 | 94 | 1006.7 |
| 20260505235400 | 52 | 345 | 1.0 | 2.0 | 0.14 | 1.04 | 1.04 | 94 | 1006.8 |
| 20260505235305 | 52 | 345 | 1.0 | 2.0 | 0.14 | 1.04 | 1.04 | 94 | 1006.8 |
| 20260505235202 | 52 | 337 | 3.0 | 6.0 | 0.16 | 1.04 | 1.04 | 93 | 1006.9 |
| 20260505235103 | 52 | 337 | 3.0 | 6.0 | 0.16 | 1.04 | 1.04 | 93 | 1006.9 |
| 20260505235002 | 52 | 349 | 2.0 | 7.0 | 0.17 | 1.04 | 1.04 | 93 | 1006.9 |
| 20260505234903 | 52 | 23 | 2.0 | 7.0 | 0.18 | 1.03 | 1.03 | 94 | 1007.0 |
| 20260505234802 | 52 | 23 | 2.0 | 7.0 | 0.18 | 1.03 | 1.03 | 94 | 1007.0 |
| 20260505234702 | 52 | 316 | 2.0 | 5.0 | 0.18 | 1.03 | 1.03 | 94 | 1006.9 |
| 20260505234603 | 52 | 355 | 2.0 | 7.0 | 0.19 | 1.03 | 1.03 | 94 | 1006.8 |
| 20260505234503 | 52 | 351 | 2.0 | 6.0 | 0.19 | 1.02 | 1.02 | 94 | 1006.5 |
| 20260505234403 | 52 | 351 | 2.0 | 6.0 | 0.19 | 1.02 | 1.02 | 94 | 1006.5 |
| 20260505234303 | 52 | 336 | 5.0 | 5.0 | 0.19 | 1.02 | 1.02 | 94 | 1006.6 |
| 20260505234203 | 52 | 359 | 2.0 | 12.0 | 0.20 | 1.02 | 1.02 | 94 | 1006.8 |
| 20260505234104 | 52 | 356 | 1.0 | 6.0 | 0.21 | 1.02 | 1.02 | 94 | 1006.9 |
| 20260505234007 | 52 | 347 | 2.0 | 8.0 | 0.22 | 1.01 | 1.01 | 94 | 1006.9 |
| 20260505233902 | 52 | 347 | 2.0 | 8.0 | 0.22 | 1.01 | 1.01 | 94 | 1006.9 |
| 20260505233807 | 52 | 345 | 2.0 | 6.0 | 0.24 | 1.01 | 1.01 | 94 | 1006.8 |
| 20260505233703 | 52 | 338 | 2.0 | 7.0 | 0.25 | 1.01 | 1.01 | 94 | 1006.7 |
| 20260505233603 | 52 | 358 | 5.0 | 10.0 | 0.30 | 1.01 | 1.01 | 94 | 1006.4 |
| 20260505233503 | 53 | 339 | 1.0 | 6.0 | 0.31 | 1.01 | 1.01 | 94 | 1006.4 |
| 20260505233402 | 53 | 339 | 1.0 | 6.0 | 0.31 | 1.01 | 1.01 | 94 | 1006.4 |
| 20260505233302 | 53 | 11 | 2.0 | 6.0 | 0.32 | 1.00 | 1.00 | 94 | 1006.3 |
| 20260505233202 | 53 | 0 | 2.0 | 8.0 | 0.32 | 1.00 | 1.00 | 94 | 1006.3 |
| 20260505233103 | 53 | 0 | 2.0 | 8.0 | 0.32 | 1.00 | 1.00 | 94 | 1006.3 |
| 20260505233003 | 53 | 2 | 1.0 | 15.0 | 0.32 | 0.99 | 0.99 | 94 | 1006.4 |
| 20260505232903 | 53 | 336 | 1.0 | 2.0 | 0.32 | 0.99 | 0.99 | 94 | 1006.5 |
| 20260505232801 | 53 | 354 | 5.0 | 8.0 | 0.32 | 0.99 | 0.99 | 94 | 1006.6 |
| 20260505232701 | 53 | 12 | 1.0 | 13.0 | 0.33 | 0.99 | 0.99 | 94 | 1006.7 |
| 20260505232601 | 53 | 8 | 1.0 | 7.0 | 0.32 | 0.98 | 0.98 | 94 | 1006.7 |
| 20260505232502 | 53 | 309 | 2.0 | 7.0 | 0.32 | 0.98 | 0.98 | 94 | 1006.8 |
| 20260505232403 | 53 | 7 | 3.0 | 9.0 | 0.31 | 0.97 | 0.97 | 94 | 1006.9 |
| 20260505232304 | 53 | 11 | 2.0 | 7.0 | 0.30 | 0.96 | 0.96 | 94 | 1006.9 |
| 20260505232202 | 53 | 343 | 3.0 | 9.0 | 0.30 | 0.95 | 0.95 | 94 | 1007.0 |
| 20260505232101 | 53 | 326 | 2.0 | 6.0 | 0.29 | 0.94 | 0.94 | 94 | 1007.0 |
| 20260505232001 | 53 | 5 | 1.0 | 6.0 | 0.29 | 0.94 | 0.94 | 94 | 1007.0 |
| 20260505231901 | 53 | 333 | 2.0 | 3.0 | 0.29 | 0.94 | 0.94 | 94 | 1007.0 |
| 20260505231802 | 54 | 343 | 1.0 | 6.0 | 0.30 | 0.94 | 0.94 | 94 | 1006.9 |
| 20260505231703 | 53 | 308 | 2.0 | 2.0 | 0.30 | 0.94 | 0.94 | 94 | 1006.8 |
| 20260505231601 | 53 | 343 | 3.0 | 8.0 | 0.30 | 0.94 | 0.94 | 94 | 1006.7 |
| 20260505231500 | 53 | 317 | 2.0 | 8.0 | 0.31 | 0.94 | 0.94 | 94 | 1006.6 |
| 20260505231400 | 54 | 315 | 1.0 | 8.0 | 0.31 | 0.94 | 0.94 | 93 | 1006.5 |
| 20260505231300 | 54 | 332 | 2.0 | 6.0 | 0.30 | 0.93 | 0.93 | 93 | 1006.4 |
| 20260505231202 | 54 | 19 | 2.0 | 3.0 | 0.30 | 0.93 | 0.93 | 93 | 1006.3 |
| 20260505231103 | 54 | 19 | 2.0 | 3.0 | 0.30 | 0.93 | 0.93 | 93 | 1006.3 |
| 20260505231002 | 54 | 329 | 2.0 | 9.0 | 0.30 | 0.93 | 0.93 | 93 | 1006.2 |
| 20260505230902 | 54 | 288 | 1.0 | 6.0 | 0.30 | 0.93 | 0.93 | 93 | 1006.1 |
| 20260505230802 | 54 | 288 | 1.0 | 6.0 | 0.30 | 0.93 | 0.93 | 93 | 1006.1 |
| 20260505230702 | 54 | 340 | 3.0 | 6.0 | 0.30 | 0.93 | 0.93 | 93 | 1006.0 |
| 20260505230602 | 54 | 347 | 3.0 | 9.0 | 0.30 | 0.93 | 0.93 | 94 | 1005.9 |
| 20260505230504 | 54 | 326 | 3.0 | 7.0 | 0.30 | 0.93 | 0.93 | 93 | 1006.1 |
| 20260505230402 | 54 | 357 | 3.0 | 8.0 | 0.30 | 0.93 | 0.93 | 94 | 1006.1 |
| 20260505230303 | 54 | 357 | 3.0 | 8.0 | 0.30 | 0.93 | 0.93 | 94 | 1006.1 |
| 20260505230202 | 55 | 345 | 1.0 | 3.0 | 0.30 | 0.93 | 0.93 | 94 | 1006.1 |
| 20260505230002 | 55 | 18 | 2.0 | 6.0 | 0.30 | 0.92 | 0.92 | 93 | 1006.0 |
| 20260505225901 | 55 | 18 | 2.0 | 6.0 | 0.30 | 0.92 | 0.92 | 93 | 1006.0 |
| 20260505225802 | 55 | 328 | 1.0 | 2.0 | 0.29 | 0.91 | 0.91 | 93 | 1006.1 |
| 20260505225701 | 55 | 350 | 2.0 | 3.0 | 0.29 | 0.91 | 0.91 | 93 | 1006.1 |
| 20260505225601 | 55 | 334 | 3.0 | 13.0 | 0.29 | 0.91 | 0.91 | 93 | 1006.2 |
| 20260505225501 | 55 | 334 | 3.0 | 13.0 | 0.29 | 0.91 | 0.91 | 93 | 1006.2 |
| 20260505225401 | 55 | 352 | 2.0 | 8.0 | 0.28 | 0.90 | 0.90 | 93 | 1006.4 |
| 20260505225305 | 56 | 332 | 5.0 | 6.0 | 0.27 | 0.89 | 0.89 | 93 | 1006.5 |
| 20260505225202 | 56 | 329 | 5.0 | 10.0 | 0.26 | 0.88 | 0.88 | 93 | 1006.5 |
| 20260505225101 | 56 | 310 | 3.0 | 9.0 | 0.25 | 0.87 | 0.87 | 93 | 1006.4 |
| 20260505225001 | 56 | 17 | 2.0 | 6.0 | 0.24 | 0.86 | 0.86 | 93 | 1006.4 |
| 20260505224901 | 56 | 350 | 5.0 | 10.0 | 0.23 | 0.85 | 0.85 | 93 | 1006.3 |
| 20260505224800 | 56 | 329 | 5.0 | 6.0 | 0.23 | 0.85 | 0.85 | 92 | 1006.2 |
| 20260505224700 | 57 | 313 | 5.0 | 14.0 | 0.22 | 0.84 | 0.84 | 92 | 1006.2 |
| 20260505224600 | 57 | 334 | 2.0 | 7.0 | 0.21 | 0.83 | 0.83 | 92 | 1006.1 |
| 20260505224501 | 57 | 342 | 2.0 | 12.0 | 0.21 | 0.83 | 0.83 | 92 | 1006.0 |
| 20260505224400 | 58 | 24 | 1.0 | 2.0 | 0.21 | 0.83 | 0.83 | 92 | 1006.0 |
| 20260505224100 | 59 | 333 | 1.0 | 3.0 | 0.19 | 0.80 | 0.80 | 90 | 1005.7 |
| 20260505224000 | 59 | 332 | 1.0 | 5.0 | 0.18 | 0.79 | 0.79 | 90 | 1005.8 |
| 20260505223902 | 59 | 313 | 1.0 | 5.0 | 0.16 | 0.77 | 0.77 | 90 | 1005.8 |
| 20260505223802 | 59 | 313 | 1.0 | 5.0 | 0.16 | 0.77 | 0.77 | 90 | 1005.8 |
| 20260505223702 | 60 | 293 | 6.0 | 14.0 | 0.12 | 0.73 | 0.73 | 88 | 1006.1 |
| 20260505223602 | 60 | 293 | 6.0 | 14.0 | 0.12 | 0.73 | 0.73 | 88 | 1006.1 |
| 20260505223502 | 61 | 324 | 5.0 | 17.0 | 0.10 | 0.70 | 0.70 | 93 | 1006.1 |
| 20260505223402 | 61 | 324 | 3.0 | 9.0 | 0.09 | 0.69 | 0.69 | 94 | 1005.9 |
| 20260505223302 | 61 | 324 | 3.0 | 9.0 | 0.09 | 0.69 | 0.69 | 94 | 1005.9 |
| 20260505223203 | 62 | 293 | 1.0 | 6.0 | 0.08 | 0.68 | 0.68 | 94 | 1005.7 |
| 20260505223102 | 62 | 279 | 1.0 | 2.0 | 0.08 | 0.68 | 0.68 | 94 | 1005.5 |
| 20260505223002 | 61 | 227 | 2.0 | 2.0 | 0.07 | 0.67 | 0.67 | 94 | 1005.4 |
| 20260505222902 | 61 | 203 | 2.0 | 7.0 | 0.07 | 0.67 | 0.67 | 94 | 1005.4 |
| 20260505222701 | 62 | 174 | 2.0 | 3.0 | 0.07 | 0.66 | 0.66 | 94 | 1005.4 |
| 20260505222601 | 61 | 158 | 2.0 | 8.0 | 0.07 | 0.66 | 0.66 | 94 | 1005.4 |
| 20260505222501 | 62 | 173 | 2.0 | 3.0 | 0.07 | 0.66 | 0.66 | 94 | 1005.4 |
| 20260505222401 | 62 | 161 | 1.0 | 6.0 | 0.07 | 0.66 | 0.66 | 94 | 1005.4 |
| 20260505222301 | 62 | 167 | 1.0 | 3.0 | 0.07 | 0.66 | 0.66 | 94 | 1005.3 |
| 20260505222201 | 62 | 122 | 0.0 | 3.0 | 0.06 | 0.65 | 0.65 | 94 | 1005.4 |
| 20260505222101 | 62 | 196 | 0.0 | 0.0 | 0.06 | 0.65 | 0.65 | 94 | 1005.3 |
| 20260505222001 | 62 | 197 | 1.0 | 3.0 | 0.06 | 0.65 | 0.65 | 94 | 1005.4 |
| 20260505221902 | 62 | 198 | 0.0 | 7.0 | 0.06 | 0.65 | 0.65 | 94 | 1005.4 |
| 20260505221801 | 62 | 197 | 1.0 | 1.0 | 0.05 | 0.64 | 0.64 | 94 | 1005.4 |
| 20260505221701 | 62 | 172 | 1.0 | 3.0 | 0.05 | 0.64 | 0.64 | 94 | 1005.4 |
| 20260505221602 | 62 | 114 | 1.0 | 2.0 | 0.05 | 0.64 | 0.64 | 93 | 1005.4 |
| 20260505221502 | 62 | 114 | 1.0 | 2.0 | 0.05 | 0.64 | 0.64 | 93 | 1005.4 |
| 20260505221403 | 62 | 148 | 1.0 | 6.0 | 0.05 | 0.63 | 0.63 | 94 | 1005.3 |
| 20260505221300 | 62 | 133 | 0.0 | 0.0 | 0.05 | 0.63 | 0.63 | 93 | 1005.3 |
| 20260505221200 | 62 | 133 | 0.0 | 0.0 | 0.05 | 0.63 | 0.63 | 93 | 1005.3 |
| 20260505221101 | 62 | 133 | 0.0 | 0.0 | 0.05 | 0.63 | 0.63 | 93 | 1005.3 |
| 20260505221000 | 62 | 133 | 0.0 | 0.0 | 0.05 | 0.63 | 0.63 | 93 | 1005.3 |
| 20260505220802 | 62 | 133 | 1.0 | 3.0 | 0.05 | 0.63 | 0.63 | 93 | 1005.4 |
| 20260505220701 | 62 | 198 | 1.0 | 5.0 | 0.05 | 0.63 | 0.63 | 93 | 1005.4 |
| 20260505220601 | 62 | 188 | 1.0 | 5.0 | 0.05 | 0.63 | 0.63 | 93 | 1005.3 |
| 20260505220502 | 62 | 161 | 0.0 | 2.0 | 0.05 | 0.63 | 0.63 | 93 | 1005.4 |
| 20260505220401 | 62 | 157 | 1.0 | 3.0 | 0.05 | 0.63 | 0.63 | 93 | 1005.5 |
| 20260505220301 | 62 | 175 | 1.0 | 3.0 | 0.05 | 0.63 | 0.63 | 93 | 1005.5 |
| 20260505220202 | 61 | 209 | 2.0 | 6.0 | 0.05 | 0.63 | 0.63 | 93 | 1005.5 |
| 20260505220000 | 61 | 179 | 3.0 | 8.0 | 0.04 | 0.62 | 0.62 | 93 | 1005.5 |
| 20260505215902 | 61 | 189 | 3.0 | 5.0 | 0.04 | 0.62 | 0.62 | 93 | 1005.5 |
| 20260505215800 | 61 | 197 | 3.0 | 6.0 | 0.04 | 0.62 | 0.62 | 93 | 1005.6 |
| 20260505215701 | 61 | 184 | 2.0 | 3.0 | 0.04 | 0.62 | 0.62 | 93 | 1005.6 |
| 20260505215600 | 61 | 186 | 2.0 | 6.0 | 0.04 | 0.62 | 0.62 | 93 | 1005.6 |
| 20260505215500 | 61 | 193 | 5.0 | 7.0 | 0.04 | 0.62 | 0.62 | 93 | 1005.6 |
| 20260505215400 | 61 | 199 | 5.0 | 7.0 | 0.04 | 0.62 | 0.62 | 93 | 1005.6 |
| 20260505215305 | 61 | 199 | 5.0 | 7.0 | 0.04 | 0.62 | 0.62 | 93 | 1005.6 |
| 20260505215202 | 61 | 195 | 6.0 | 8.0 | 0.04 | 0.62 | 0.62 | 93 | 1005.6 |
| 20260505215102 | 61 | 189 | 3.0 | 6.0 | 0.04 | 0.62 | 0.62 | 93 | 1005.6 |
| 20260505215002 | 62 | 168 | 3.0 | 8.0 | 0.04 | 0.62 | 0.62 | 93 | 1005.6 |
| 20260505214903 | 62 | 168 | 3.0 | 8.0 | 0.04 | 0.62 | 0.62 | 93 | 1005.6 |
| 20260505214802 | 62 | 166 | 3.0 | 9.0 | 0.04 | 0.62 | 0.62 | 93 | 1005.6 |
| 20260505214702 | 62 | 200 | 3.0 | 6.0 | 0.04 | 0.62 | 0.62 | 93 | 1005.6 |
| 20260505214602 | 62 | 177 | 3.0 | 9.0 | 0.04 | 0.62 | 0.62 | 93 | 1005.5 |
| 20260505214502 | 62 | 177 | 2.0 | 7.0 | 0.04 | 0.62 | 0.62 | 93 | 1005.5 |
| 20260505214402 | 62 | 184 | 5.0 | 8.0 | 0.04 | 0.62 | 0.62 | 93 | 1005.5 |
| 20260505214302 | 62 | 192 | 1.0 | 8.0 | 0.04 | 0.62 | 0.62 | 93 | 1005.5 |
| 20260505214201 | 62 | 179 | 0.0 | 0.0 | 0.03 | 0.61 | 0.61 | 93 | 1005.5 |
| 20260505214101 | 62 | 179 | 0.0 | 0.0 | 0.03 | 0.61 | 0.61 | 93 | 1005.5 |
| 20260505213901 | 62 | 179 | 0.0 | 0.0 | 0.03 | 0.61 | 0.61 | 92 | 1005.5 |
| 20260505213801 | 62 | 179 | 2.0 | 3.0 | 0.03 | 0.61 | 0.61 | 92 | 1005.5 |
| 20260505213701 | 62 | 196 | 1.0 | 6.0 | 0.03 | 0.61 | 0.61 | 93 | 1005.5 |
| 20260505213601 | 62 | 196 | 1.0 | 6.0 | 0.03 | 0.61 | 0.61 | 93 | 1005.5 |
| 20260505213501 | 62 | 172 | 0.0 | 2.0 | 0.02 | 0.60 | 0.60 | 93 | 1005.5 |
| 20260505213401 | 62 | 168 | 0.0 | 0.0 | 0.02 | 0.60 | 0.60 | 92 | 1005.5 |
| 20260505213303 | 62 | 168 | 0.0 | 0.0 | 0.02 | 0.60 | 0.60 | 92 | 1005.5 |
| 20260505213218 | 62 | 212 | 2.0 | 2.0 | 0.01 | 0.59 | 0.59 | 92 | 1005.6 |
| 20260505213201 | 62 | 168 | 1.0 | 0.0 | 0.02 | 0.60 | 0.60 | 92 | 1005.5 |
| 20260505213100 | 62 | 178 | 1.0 | 2.0 | 0.02 | 0.60 | 0.60 | 92 | 1005.5 |
| 20260505213004 | 62 | 178 | 1.0 | 2.0 | 0.02 | 0.60 | 0.60 | 92 | 1005.5 |
| 20260505212901 | 62 | 195 | 0.0 | 0.0 | 0.02 | 0.60 | 0.60 | 92 | 1005.5 |
| 20260505212801 | 62 | 198 | 2.0 | 3.0 | 0.02 | 0.60 | 0.60 | 92 | 1005.6 |
| 20260505212700 | 62 | 202 | 2.0 | 8.0 | 0.01 | 0.59 | 0.59 | 92 | 1005.6 |
| 20260505212600 | 62 | 209 | 3.0 | 6.0 | 0.01 | 0.59 | 0.59 | 92 | 1005.6 |
| 20260505212500 | 62 | 210 | 2.0 | 5.0 | 0.01 | 0.59 | 0.59 | 92 | 1005.6 |
| 20260505212401 | 62 | 207 | 1.0 | 5.0 | 0.01 | 0.59 | 0.59 | 92 | 1005.6 |
| 20260505212300 | 62 | 191 | 1.0 | 3.0 | 0.01 | 0.59 | 0.59 | 92 | 1005.6 |
| 20260505212200 | 62 | 212 | 2.0 | 2.0 | 0.01 | 0.59 | 0.59 | 92 | 1005.6 |
| 20260505212100 | 62 | 216 | 2.0 | 6.0 | 0.01 | 0.59 | 0.59 | 92 | 1005.6 |
| 20260505212002 | 62 | 117 | 2.0 | 3.0 | 0.01 | 0.59 | 0.59 | 92 | 1005.6 |
| 20260505211900 | 62 | 205 | 1.0 | 5.0 | 0.02 | 0.59 | 0.59 | 92 | 1005.6 |
| 20260505211800 | 62 | 183 | 2.0 | 5.0 | 0.02 | 0.59 | 0.59 | 92 | 1005.6 |
| 20260505211600 | 62 | 210 | 2.0 | 6.0 | 0.02 | 0.59 | 0.59 | 92 | 1005.6 |
| 20260505211500 | 62 | 157 | 1.0 | 5.0 | 0.01 | 0.58 | 0.58 | 92 | 1005.5 |
| 20260505211400 | 62 | 160 | 2.0 | 2.0 | 0.01 | 0.58 | 0.58 | 92 | 1005.5 |
| 20260505211302 | 62 | 183 | 3.0 | 7.0 | 0.01 | 0.58 | 0.58 | 92 | 1005.6 |
| 20260505211202 | 62 | 209 | 2.0 | 5.0 | 0.01 | 0.58 | 0.58 | 92 | 1005.6 |
| 20260505211103 | 62 | 209 | 2.0 | 5.0 | 0.01 | 0.58 | 0.58 | 92 | 1005.6 |
| 20260505210901 | 62 | 172 | 1.0 | 3.0 | 0.01 | 0.58 | 0.58 | 91 | 1005.6 |